Location: Krasnoyarskiy Pitomnik
(51.1333°N, 71.6167°E)
Time: 07:05:27
(UTC+00:00)

Okean 1-7 Rocket - Visible Passes

Search period start: 21 May 2022 00:00
Search period end: 31 May 2022 00:00
Orbit: 615 x 650 km, 82.5° (Epoch: 20 May)

Date Brightness Start Highest point End Pass type
(mag) Time Alt. Az. Time Alt. Az. Time Alt. Az.
21 May 6.5 22:14:39 10° ESE 22:16:38 13° E 22:18:35 10° NE visible
24 May 6.8 21:43:05 10° E 21:43:16 10° E 21:43:26 10° ENE visible
25 May 6.2 22:01:22 10° SE 22:04:25 19° E 22:07:28 10° NE visible
26 May 5.3 22:21:44 10° SSE 22:25:42 33° E 22:29:39 10° NNE visible
28 May 6.2 21:28:32 10° ESE 21:31:01 15° E 21:33:30 10° NE visible
29 May 5.5 21:48:34 10° SE 21:52:14 27° E 21:55:55 10° NNE visible
30 May 4.5 22:09:21 10° SSE 22:13:35 49° E 22:17:50 10° NNE visible
